CW3660 Weather Reports


Display with metric or nautical units.
time (UTC)temp
F
wind
direction
speed
MPH
gust
MPH
rain 1hr
in
rain 24hr
in
rain mn
in
humidity
%
barometer
mb
20260509201017 49 45 2.0 8.0 0.00 0.11 0.11 92 1012.5
20260509200038 50 45 2.0 5.0 0.00 0.11 0.11 92 1012.4
20260509195017 50 0 1.0 4.0 0.00 0.11 0.11 92 1012.7
20260509194017 50 0 1.0 6.0 0.00 0.11 0.11 92 1012.5
20260509193057 50 23 3.0 6.0 0.00 0.11 0.11 92 1012.4
20260509192018 50 45 2.0 4.0 0.00 0.11 0.11 92 1012.2
20260509191017 50 0 4.0 7.0 0.00 0.11 0.11 92 1012.0
20260509190017 50 45 2.0 8.0 0.00 0.11 0.11 92 1012.4
20260509185017 50 23 2.0 8.0 0.00 0.11 0.11 92 1012.2
20260509184137 50 23 3.0 6.0 0.01 0.11 0.11 92 1012.7
20260509183017 50 0 2.0 5.0 0.01 0.11 0.11 92 1012.8
20260509182037 50 23 1.0 4.0 0.01 0.11 0.11 91 1013.2
20260509181017 50 0 1.0 5.0 0.01 0.11 0.11 91 1013.4
20260509180017 49 23 2.0 5.0 0.01 0.11 0.11 91 1013.1
20260509175017 49 23 2.0 5.0 0.01 0.11 0.11 90 1013.3
20260509174059 49 0 1.0 6.0 0.00 0.10 0.10 90 1013.5
20260509173017 49 0 1.0 5.0 0.01 0.10 0.10 90 1013.3
20260509172017 49 0 2.0 5.0 0.01 0.10 0.10 90 1013.3
20260509171017 49 23 1.0 4.0 0.02 0.10 0.10 90 1013.9
20260509170017 49 135 1.0 3.0 0.02 0.10 0.10 90 1013.7
20260509165017 48 90 1.0 3.0 0.03 0.10 0.10 90 1013.8
20260509164037 48 135 1.0 3.0 0.04 0.10 0.10 90 1013.9
20260509163017 48 68 1.0 3.0 0.03 0.09 0.09 91 1014.0
20260509162018 48 113 1.0 3.0 0.03 0.09 0.09 90 1014.2
20260509161017 48 90 1.0 3.0 0.02 0.08 0.08 90 1013.9
20260509160037 48 0 1.0 7.0 0.03 0.08 0.08 90 1013.8
20260509155017 47 23 3.0 7.0 0.02 0.07 0.07 89 1013.9
20260509154017 47 23 2.0 5.0 0.02 0.06 0.06 89 1014.1
20260509153018 47 23 1.0 3.0 0.02 0.06 0.06 89 1014.2
20260509152017 47 0 1.0 3.0 0.03 0.06 0.06 89 1014.4
20260509151017 47 0.0 3.0 0.03 0.06 0.06 89 1014.5
20260509150017 47 0.0 1.0 0.03 0.05 0.05 89 1014.6
20260509145017 47 0.0 3.0 0.03 0.05 0.05 89 1014.8
20260509144017 47 0.0 1.0 0.02 0.04 0.04 90 1014.8
20260509143017 46 0.0 2.0 0.03 0.04 0.04 89 1015.0
20260509142016 46 0.0 2.0 0.02 0.03 0.03 89 1015.0
20260509141017 46 0.0 1.0 0.02 0.03 0.03 88 1015.1
20260509140017 46 0.0 3.0 0.02 0.02 0.02 87 1015.2
20260509135037 46 158 1.0 3.0 0.02 0.02 0.02 86 1015.1
20260509134016 46 158 1.0 3.0 0.02 0.02 0.02 86 1014.9
20260509133016 46 0.0 1.0 0.01 0.01 0.01 86 1014.8
20260509132016 46 0.0 2.0 0.01 0.01 0.01 85 1014.6
20260509131016 46 0.0 2.0 0.01 0.01 0.01 85 1014.7
20260509130016 45 0.0 2.0 0.00 0.00 0.00 84 1014.8
20260509125016 45 0.0 2.0 0.00 0.00 0.00 82 1014.8
20260509124016 45 158 2.0 6.0 0.00 0.00 0.00 81 1014.9
20260509123016 45 180 1.0 3.0 0.00 0.00 0.00 80 1015.1
20260509122016 45 0.0 2.0 0.00 0.00 0.00 79 1014.9
20260509121016 45 0.0 2.0 0.00 0.00 0.00 79 1015.0
20260509120016 44 0.0 0.0 0.00 0.00 0.00 80 1015.0
20260509115016 43 0.0 3.0 0.00 0.00 0.00 81 1015.1
20260509114016 43 180 1.0 3.0 0.00 0.00 0.00 83 1015.3
20260509113016 42 180 2.0 4.0 0.00 0.00 0.00 85 1015.1
20260509112016 41 0.0 3.0 0.00 0.00 0.00 87 1014.9
20260509111016 40 0.0 3.0 0.00 0.00 0.00 87 1015.0
20260509110016 40 0.0 1.0 0.00 0.00 0.00 88 1014.9
20260509105016 39 0.0 0.0 0.00 0.00 0.00 88 1015.0
20260509104016 39 0.0 0.0 0.00 0.00 0.00 88 1015.0
20260509103016 39 0.0 0.0 0.00 0.00 0.00 88 1014.9
20260509102016 38 0.0 0.0 0.00 0.00 0.00 87 1015.0
20260509101016 38 0.0 0.0 0.00 0.00 0.00 87 1014.6
20260509100016 38 0.0 0.0 0.00 0.00 0.00 86 1014.7
20260509095016 38 0.0 0.0 0.00 0.00 0.00 86 1014.4
20260509094016 38 0.0 0.0 0.00 0.00 0.00 86 1014.4
20260509093016 38 0.0 0.0 0.00 0.00 0.00 86 1014.2
20260509092016 38 0.0 0.0 0.00 0.00 0.00 86 1014.1
20260509091036 38 0.0 0.0 0.00 0.00 0.00 85 1014.1
20260509090016 38 0.0 1.0 0.00 0.00 0.00 85 1014.0
20260509085016 38 0.0 0.0 0.00 0.00 0.00 84 1014.1
20260509084016 39 0.0 0.0 0.00 0.00 0.00 83 1014.0
20260509083016 39 0.0 0.0 0.00 0.00 0.00 83 1013.8
20260509082036 39 0.0 0.0 0.00 0.00 0.00 83 1013.8
20260509081016 39 0.0 1.0 0.00 0.00 0.00 82 1014.0
20260509080056 39 0.0 2.0 0.00 0.00 0.00 82 1014.1
20260509075016 39 203 1.0 3.0 0.00 0.00 0.00 81 1014.2
20260509074016 40 0.0 3.0 0.00 0.00 0.00 80 1014.0
20260509073016 40 0.0 0.0 0.00 0.00 0.00 79 1013.8
20260509072016 40 0.0 0.0 0.00 0.00 0.00 78 1013.9
20260509071016 41 0.0 0.0 0.00 0.00 0.00 78 1013.8
20260509070015 41 0.0 0.0 0.00 0.00 0.00 77 1013.8
20260509065036 41 0.0 0.0 0.00 0.00 0.00 75 1013.8
20260509064016 42 0.0 0.0 0.00 0.00 0.00 75 1013.7
20260509063036 42 0.0 0.0 0.00 0.00 0.00 75 1013.6
20260509062016 42 0.0 0.0 0.00 0.00 0.00 74 1013.6
20260509061036 42 0.0 0.0 0.00 0.00 0.00 73 1013.7
20260509060016 43 0.0 0.0 0.00 0.00 0.00 72 1013.7
20260509055016 43 0.0 0.0 0.00 0.00 0.00 70 1013.7
20260509054016 44 0.0 0.0 0.00 0.00 0.00 69 1013.9
20260509053015 44 0.0 0.0 0.00 0.00 0.00 68 1013.8
20260509052036 44 0.0 0.0 0.00 0.00 0.00 67 1013.6
20260509051015 45 0.0 0.0 0.00 0.00 0.00 67 1013.6
20260509050016 45 0.0 0.0 0.00 0.00 0.00 66 1013.6
20260509045015 45 0.0 0.0 0.00 0.00 0.00 65 1013.6
20260509044015 45 0.0 0.0 0.00 0.00 0.00 65 1013.6
20260509043016 46 0.0 0.0 0.00 0.00 0.00 64 1013.6
20260509042015 46 0.0 0.0 0.00 0.00 0.00 63 1013.5
20260509041016 46 0.0 0.0 0.00 0.00 0.00 63 1013.4
20260509040016 46 0.0 1.0 0.00 0.00 0.00 62 1013.2
20260509035016 47 0.0 1.0 0.00 0.00 0.00 62 1013.2
20260509034016 47 0.0 3.0 0.00 0.00 0.00 62 1013.2
20260509033016 47 0.0 2.0 0.00 0.00 0.00 61 1013.2
20260509032036 47 0.0 1.0 0.00 0.00 0.00 60 1013.1
20260509031016 48 0.0 2.0 0.00 0.00 0.00 59 1013.0
20260509030017 48 0.0 1.0 0.00 0.00 0.00 59 1012.9
20260509025016 48 0.0 2.0 0.00 0.00 0.00 58 1012.9
20260509024015 48 0.0 2.0 0.00 0.00 0.00 57 1012.9
20260509023016 49 0.0 2.0 0.00 0.00 0.00 56 1012.9
20260509022016 49 0.0 2.0 0.00 0.00 0.00 55 1012.9
20260509021016 49 0.0 1.0 0.00 0.00 0.00 54 1012.6
20260509020016 50 0.0 2.0 0.00 0.00 0.00 54 1012.4
20260509015016 50 0.0 1.0 0.00 0.00 0.00 53 1012.3
20260509014036 51 0.0 2.0 0.00 0.00 0.00 51 1012.3
20260509013016 51 0.0 1.0 0.00 0.00 0.00 50 1012.1
20260509012016 51 0.0 2.0 0.00 0.00 0.00 49 1012.0
20260509011016 52 0.0 1.0 0.00 0.00 0.00 48 1011.7
20260509010016 52 0.0 4.0 0.00 0.00 0.00 47 1011.5
20260509005015 53 0.0 5.0 0.00 0.00 0.00 46 1011.3
20260509004015 53 315 2.0 6.0 0.00 0.00 0.00 45 1011.0
20260509003015 54 315 1.0 4.0 0.00 0.00 0.00 44 1010.8
20260509002016 54 315 2.0 5.0 0.00 0.00 0.00 43 1010.6
20260509001016 54 315 2.0 7.0 0.00 0.00 0.00 42 1010.5
20260509000036 55 315 3.0 8.0 0.00 0.00 0.00 40 1010.2
20260508235035 55 270 3.0 8.0 0.00 0.00 0.00 39 1010.0
20260508234016 56 315 4.0 10.0 0.00 0.00 0.00 38 1009.8
20260508233015 56 315 3.0 9.0 0.00 0.00 0.00 37 1009.6
20260508232015 56 315 4.0 12.0 0.00 0.00 0.00 36 1009.4
20260508231015 56 293 3.0 10.0 0.00 0.00 0.00 37 1009.3
20260508230015 57 293 2.0 5.0 0.00 0.00 0.00 38 1009.2
20260508225015 57 203 3.0 7.0 0.00 0.00 0.00 37 1009.1
20260508224015 57 270 3.0 7.0 0.00 0.00 0.00 37 1009.1
20260508223015 57 225 2.0 6.0 0.00 0.00 0.00 37 1009.0
20260508222015 57 270 3.0 6.0 0.00 0.00 0.00 37 1009.1
20260508221036 58 315 5.0 11.0 0.00 0.00 0.00 37 1009.0
20260508220015 58 270 4.0 12.0 0.00 0.00 0.00 35 1008.9
20260508215015 58 225 3.0 8.0 0.00 0.00 0.00 35 1008.9
20260508214015 58 248 2.0 9.0 0.00 0.00 0.00 36 1008.8
20260508213137 58 248 3.0 8.0 0.00 0.00 0.00 35 1008.8
20260508212017 58 225 3.0 8.0 0.00 0.00 0.00 36 1008.7
20260508211057 58 248 4.0 11.0 0.00 0.00 0.00 35 1008.7
20260508210057 59 248 4.0 10.0 0.00 0.00 0.00 34 1008.5
20260508205017 58 248 4.0 11.0 0.00 0.00 0.00 35 1008.6
20260508204017 59 315 3.0 8.0 0.00 0.00 0.00 35 1008.5
20260508203017 59 225 3.0 9.0 0.00 0.00 0.00 34 1008.6
20260508202017 59 315 5.0 15.0 0.00 0.00 0.00 34 1008.5